Joplin, MO

4:14 AM CST on December 16, 2019 (GMT -0600)
Joplin Regional

Weather History for KJLN - June, 2019

Change the Weather History Date:

Monday, June 10, 2019

  Actual Average Record
Temperature  
Mean Temperature 66 °F 74 °F  
Max Temperature 78 °F 84 °F 99 °F (1953)
Min Temperature 54 °F 64 °F 44 °F (1988)
Degree Days  
Heating Degree Days 0 0  
Month to date heating degree days 0 2  
Since 1 June heating degree days 0 2  
Since 1 July heating degree days 4415 4071  
Cooling Degree Days 1 9  
Month to date cooling degree days 87 80  
Year to date cooling degree days 240 260  
Since 1 June cooling degree days 87 80  
Growing Degree Days 16 (Base 50)    
Moisture  
Dew Point 49 °F    
Average Humidity 55    
Maximum Humidity 87    
Minimum Humidity 31    
Precipitation  
Precipitation 0.00 in 0.19 in 3.86 in (2007)
Month to date precipitation 0.39 2.03  
Year to date precipitation 28.54 19.98  
Sea Level Pressure  
Sea Level Pressure 30.27 in    
Wind  
Wind Speed 8 mph ()    
Max Wind Speed 18 mph    
Max Gust Speed 27 mph    
Visibility 10.0 miles    
Events      
T = Trace of Precipitation, MM = Missing Value Source: Averaged Metar Reports

Daily Weather History Graph

Daily Weather History Graph

Search for Another Location

Airport or City:

Astronomy

Jun. 10, 2019 Rise Set
Actual Time 5:57 AM CDT 8:37 PM CDT
Civil Twilight 5:26 AM CDT 9:08 PM CDT
Nautical Twilight 4:48 AM CDT 9:46 PM CDT
Astronomical Twilight 4:05 AM CDT 10:29 PM CDT
Moon 1:40 PM CDT (6/10) 1:58 AM CDT (6/10)
Length of Visible Light 15h 41m
Length of Day
14h 40m
First Quarter, 55% of the Moon is Illuminated
Jun 10
First Quarter
Jun 17
Full
Jun 25
Last Quarter
Jul 2
New
Jul 9
First Quarter

Hourly Weather History & Observations

Time (CDT) Temp. Dew Point Humidity Pressure Visibility Wind Dir Wind Speed Gust Speed Precip Events Conditions
12:53 AM 66.0 °F 53.1 °F 63% 30.20 in 10.0 mi NNW 10.4 mph - N/A   Mostly Cloudy
1:53 AM 62.1 °F 52.0 °F 70% 30.22 in 10.0 mi NNW 8.1 mph - N/A   Clear
2:53 AM 60.1 °F 52.0 °F 75% 30.22 in 10.0 mi NNW 8.1 mph - N/A   Partly Cloudy
3:53 AM 60.1 °F 51.1 °F 72% 30.23 in 10.0 mi NNW 8.1 mph - N/A   Mostly Cloudy
5:53 AM 55.9 °F 48.9 °F 77% 30.29 in 10.0 mi NNW 6.9 mph - N/A   Clear
6:53 AM 57.0 °F 50.0 °F 77% 30.30 in 10.0 mi North 9.2 mph - N/A   Clear
7:53 AM 62.1 °F 50.0 °F 65% 30.32 in 10.0 mi North 10.4 mph - N/A   Clear
8:53 AM 66.0 °F 50.0 °F 56% 30.32 in 10.0 mi North 12.7 mph - N/A   Clear
9:53 AM 70.0 °F 48.9 °F 47% 30.34 in 10.0 mi NNE 11.5 mph 20.7 mph N/A   Clear
10:53 AM 72.0 °F 45.0 °F 38% 30.33 in 10.0 mi NNE 15.0 mph 21.9 mph N/A   Clear
11:53 AM 73.9 °F 46.9 °F 38% 30.33 in 10.0 mi North 18.4 mph 23.0 mph N/A   Clear
12:53 PM 75.0 °F 46.9 °F 37% 30.31 in 10.0 mi North 13.8 mph 20.7 mph N/A   Clear
1:53 PM 75.9 °F 46.9 °F 36% 30.30 in 10.0 mi NE 10.4 mph 23.0 mph N/A   Clear
2:53 PM 75.9 °F 46.9 °F 36% 30.29 in 10.0 mi North 16.1 mph 24.2 mph N/A   Clear
3:53 PM 77.0 °F 48.9 °F 37% 30.28 in 10.0 mi North 10.4 mph - N/A   Clear
4:53 PM 78.1 °F 48.9 °F 36% 30.26 in 10.0 mi North 12.7 mph 19.6 mph N/A   Clear
5:53 PM 77.0 °F 45.0 °F 32% 30.24 in 10.0 mi NNE 10.4 mph - N/A   Clear
6:53 PM 75.9 °F 45.0 °F 33% 30.24 in 10.0 mi North 9.2 mph - N/A   Clear
7:53 PM 71.1 °F 50.0 °F 47% 30.24 in 10.0 mi North 8.1 mph - N/A   Clear
8:53 PM 66.0 °F 46.9 °F 50% 30.24 in 10.0 mi East 3.5 mph - N/A   Clear
9:53 PM 60.1 °F 51.1 °F 72% 30.25 in 10.0 mi Calm Calm - N/A   Clear
10:53 PM 57.9 °F 52.0 °F 81% 30.25 in 10.0 mi Calm Calm - N/A   Clear
11:53 PM 55.9 °F 52.0 °F 87% 30.26 in 10.0 mi Calm Calm - N/A   Clear